This is the latest recevied weather packets stored in our database for station/object Ummendorf. If no packets are shown the sender has not sent any weather packets the latest 10 day(s).
| Time | Temp. | Humidity | Pressure | Rain* | Wind** | Luminosity | Snow |
|---|---|---|---|---|---|---|---|
| 1788579130 | 17.22° C | 62% | 1018.8 hPa | 0 mm | - | - | - |
| 1788577329 | 17.22° C | 61% | 1018.5 hPa | 0 mm | - | - | - |
| 1788575529 | 17.22° C | 62% | 1018.2 hPa | 0 mm | - | - | - |
| 1788573729 | 17.78° C | 60% | 1017.9 hPa | 0 mm | - | - | - |
| 1788571929 | 18.33° C | 58% | 1017.6 hPa | 0 mm | - | - | - |
| 1788570129 | 18.89° C | 57% | 1017.6 hPa | 0 mm | - | - | - |
| 1788568332 | 19.44° C | 56% | 1017.5 hPa | 0 mm | - | - | - |
| 1788566531 | 20.56° C | 54% | 1017.4 hPa | 0 mm | - | - | - |
| 1788564731 | 20.56° C | 52% | 1017.1 hPa | 0 mm | - | - | - |
| 1788562931 | 20.56° C | 52% | 1016.9 hPa | 0 mm | - | - | - |
| 1788561131 | 21.11° C | 50% | 1016.8 hPa | 0 mm | - | - | - |
| 1788557531 | 21.11° C | 50% | 1016.6 hPa | 0 mm | - | - | - |
| 1788555731 | 21.67° C | 50% | 1016.5 hPa | 0 mm | - | - | - |
| 1788553931 | 21.67° C | 49% | 1016.5 hPa | 0 mm | - | - | - |
| 1788552130 | 22.78° C | 47% | 1016.4 hPa | 0 mm | - | - | - |
| 1788550330 | 23.33° C | 45% | 1016.3 hPa | 0 mm | - | - | - |
| 1788548531 | 24.44° C | 42% | 1016 hPa | 0 mm | - | - | - |
| 1788546731 | 25.56° C | 39% | 1015.7 hPa | 0 mm | - | - | - |
| 1788544931 | 26.67° C | 36% | 1015.1 hPa | 0 mm | - | - | - |
| 1788543130 | 27.78° C | 33% | 1015 hPa | 0 mm | - | - | - |
| 1788541344 | 28.33° C | 30% | 1015 hPa | 0 mm | - | - | - |
| 1788539531 | 28.89° C | 28% | 1015.1 hPa | 0 mm | - | - | - |
| 1788537731 | 29.44° C | 28% | 1015.3 hPa | 0 mm | - | - | - |
| 1788535931 | 29.44° C | 28% | 1015.5 hPa | 0 mm | - | - | - |
| 1788534131 | 30° C | 29% | 1015.7 hPa | 0 mm | - | - | - |
* Rain since midnight (hover to see other rain measurements)
** Current wind speed in m/s (hover to see current wind gust speed)